HST 1 20580U 90037B 24341.14230580 .00011022 00000-0 46586-3 0 9999 2 20580 28.4687 270.0321 0002166 120.1845 239.8963 15.21595758703472 ISS (ZARYA) 1 25544U 98067A 24340.99323416 .00018216 00000-0 32316-3 0 9996 2 25544 51.6388 184.2057 0007028 306.7642 201.1123 15.50265976485198 CXO 1 25867U 99040B 24342.39125787 .00000678 00000-0 00000-0 0 9998 2 25867 45.0848 140.4320 8695375 304.8223 0.1385 0.37803356 15219